{"data":{"norad_id":58035,"intl_designator":"2023-156H","name":"STARLINK-30438","alt_names":[],"object_type":"PAYLOAD","status":"ACTIVE","operator":null,"country":"US","launch_date":"2023-10-09","launch_site_code":"AFWTR","launch_vehicle":null,"mission":null,"orbit_class":"UNKNOWN","rcs_meters":null,"size_class":null,"mass_kg":null,"dimensions":null,"purposes":["comms"],"wikipedia_slug":null,"has_3d_model":false,"image_url":null,"decayed_at":null,"tle_current":{"epoch":"2026-09-20T06:10:46.116480Z","epoch_age_seconds":158627,"freshness":"FRESH","line1":"1 58035U 23156H   26263.25747820  .00000248  00000+0  19766-4 0  9998","line2":"2 58035  53.1594 254.0240 0001309  71.3461 288.7682 15.31699773166063","mean_motion":15.31699773,"eccentricity":0.0001309,"inclination_deg":53.1594,"raan_deg":254.024,"arg_perigee_deg":71.3461,"mean_anomaly_deg":288.7682,"bstar":1.9766e-5,"rev_number":16606,"period_min":94.013201893972,"perigee_km":469.84415381367,"apogee_km":471.63718998817,"semimajor_km":6848.8776719009,"source":"CELESTRAK","updated_at":"2026-09-21T09:00:33.759347Z"}}}